Location: Unspecified
(0.0000°N, 0.0000°E)
Time: 09:26:20
(UTC+02:00)

H-2A R/B - Visible Passes

Search period start: 24 April 2017 00:00
Search period end: 04 May 2017 00:00
Orbit: 238 x 33145 km, 28.1° (Epoch: 22 April)

Date Brightness Start Highest point End Pass type
(mag) Time Alt. Az. Time Alt. Az. Time Alt. Az.
24 Apr 6.0 00:45:05 10° NW 00:46:37 10° NNW 00:47:55 10° NNW visible
25 Apr 2.4 06:11:49 52° S 06:11:49 52° S 06:24:19 10° SE visible
25 Apr 9.4 17:07:59 10° WSW 18:25:49 19° WSW 20:38:07 10° WSW visible
26 Apr 6.4 11:29:40 10° SW 16:34:14 77° SSW 20:29:31 10° NE visible
27 Apr 2.9 06:37:22 32° SW 06:39:03 40° S 06:57:34 10° SE visible
27 Apr 9.8 18:07:46 10° WSW 18:48:25 12° WSW 19:40:20 10° WSW visible
28 Apr 6.2 11:57:30 10° SW 20:08:41 57° WNW 20:56:01 10° NE visible
29 Apr 3.7 07:02:30 17° WSW 07:06:30 36° S 15:47:50 10° ENE visible
30 Apr 6.1 12:25:12 10° SW 20:51:38 48° NW 21:21:55 10° NE visible
01 May 4.2 07:27:33 10° WSW 07:34:02 34° S 16:18:50 10° ENE visible
02 May 6.0 12:52:48 10° SW 15:39:17 64° SW 21:47:17 10° NNE visible
